contact:dominique.lefevre@mio.osupytheas.fr, maurice.libes@osupytheas.fr, didier.mallarino@osupytheas.fr
Project:EMSO http://www.emso-fr.org/EMSO-France
Depth: 2436.0 m
Title:EMSO Ligure Ouest : Data MII capteur AQUADOPP
Date,Latitude,Longitude,X_East,Y_North,Z_Up,Amplitude_X,Amplitude_Y,Amplitude_Z,Batterie,SoundSpeed,Heading,Pitch,Roll,Pressure,TIS,Speed,Direction
, degrees North, degrees East, m.s-1, m.s-1,m.s-1, 1, 1, 1, Volt, m.s-1, degree, degree, degree, dbar, degree_C, m.s-1, degree
2022-05-30T08:55:03,42.805,6.029,-0.01,-0.022,-0.032,106.0,105.0,103.0,13.4,1505.1,321.9,-0.8,1.8,2471.318,13.27,0.024,204.4
2022-05-30T08:58:03,42.805,6.029,-0.026,-0.003,-0.01,106.0,104.0,103.0,13.4,1505.2,323.2,-0.8,1.8,2471.171,13.28,0.026,263.4
2022-05-30T09:04:03,42.805,6.029,-0.031,0.008,0.001,106.0,106.0,103.0,13.4,1505.2,322.6,-0.8,1.8,2470.991,13.28,0.032,284.5
2022-05-30T09:07:03,42.805,6.029,-0.014,0.013,-0.021,105.0,105.0,102.0,13.4,1505.2,321.4,-0.8,1.8,2470.893,13.28,0.019,312.9
2022-05-30T09:10:03,42.805,6.029,-0.033,0.01,0.006,106.0,106.0,103.0,13.4,1505.2,325.6,-0.8,1.8,2470.805,13.28,0.034,286.9
2022-05-30T09:13:03,42.805,6.029,-0.013,0.003,-0.031,106.0,104.0,103.0,13.3,1505.2,330.3,-0.8,1.9,2470.788,13.28,0.013,283.0
2022-05-30T09:16:03,42.805,6.029,-0.017,-0.003,-0.002,105.0,105.0,103.0,13.4,1505.2,331.9,-0.8,1.8,2470.754,13.28,0.017,260.0
2022-05-30T09:19:03,42.805,6.029,-0.035,-0.007,-0.004,106.0,103.0,102.0,13.4,1505.2,327.1,-0.7,1.8,2470.731,13.29,0.035,258.7
2022-05-30T09:22:03,42.805,6.029,-0.018,-0.008,-0.006,105.0,104.0,103.0,13.4,1505.2,324.8,-0.8,1.8,2470.702,13.29,0.019,246.0
2022-05-30T09:25:03,42.805,6.029,-0.025,-0.011,-0.012,104.0,104.0,102.0,13.4,1505.2,327.2,-0.7,1.8,2470.712,13.29,0.027,246.3
2022-05-30T09:28:03,42.805,6.029,-0.015,-0.002,-0.028,105.0,105.0,104.0,13.4,1505.2,322.7,-0.8,1.8,2470.734,13.29,0.015,262.4
2022-05-30T09:31:03,42.805,6.029,-0.033,0.007,-0.06,105.0,104.0,104.0,13.4,1505.2,331.0,-0.8,1.8,2470.735,13.29,0.033,282.0
2022-05-30T09:34:03,42.805,6.029,-0.029,0.003,-0.016,107.0,104.0,103.0,13.3,1505.2,321.1,-0.8,1.8,2470.666,13.29,0.029,275.9
2022-05-30T09:37:03,42.805,6.029,-0.019,-0.028,-0.02,104.0,104.0,102.0,13.4,1505.2,323.6,-0.7,1.9,2470.714,13.29,0.033,214.2
2022-05-30T09:40:03,42.805,6.029,-0.04,-0.01,-0.003,105.0,105.0,102.0,13.4,1505.2,332.3,-0.8,1.8,2470.716,13.29,0.041,256.0
2022-05-30T09:43:03,42.805,6.029,-0.018,-0.013,-0.019,105.0,103.0,102.0,13.3,1505.2,324.6,-0.7,1.8,2470.738,13.29,0.022,234.2
2022-05-30T09:46:03,42.805,6.029,-0.012,-0.001,-0.035,105.0,106.0,104.0,13.4,1505.2,326.7,-0.8,1.8,2470.699,13.29,0.012,265.2
2022-05-30T09:49:03,42.805,6.029,-0.026,0.01,0.006,104.0,103.0,102.0,13.4,1505.2,331.2,-0.7,1.8,2470.692,13.29,0.027,291.0
2022-05-30T09:52:03,42.805,6.029,-0.024,0.0,-0.007,104.0,104.0,102.0,13.3,1505.2,330.1,-0.7,1.8,2470.723,13.29,0.024,270.0
2022-05-30T09:55:03,42.805,6.029,-0.03,0.007,0.008,105.0,104.0,102.0,13.3,1505.2,321.4,-0.8,1.8,2470.743,13.29,0.03,283.1
2022-05-30T09:58:03,42.805,6.029,-0.01,-0.005,-0.029,105.0,106.0,103.0,13.4,1505.2,319.6,-0.8,1.8,2470.7,13.29,0.011,243.4
2022-05-30T10:04:03,42.805,6.029,-0.01,-0.004,-0.009,105.0,105.0,103.0,13.4,1505.2,325.1,-0.7,1.8,2470.761,13.28,0.01,248.2
2022-05-30T10:07:03,42.805,6.029,-0.026,-0.006,-0.019,105.0,105.0,102.0,13.4,1505.2,324.9,-0.8,1.8,2470.771,13.28,0.026,257.0
2022-05-30T10:10:03,42.805,6.029,-0.048,-0.018,-0.024,105.0,103.0,102.0,13.4,1505.2,323.4,-0.8,1.8,2470.775,13.28,0.051,249.4
2022-05-30T10:13:03,42.805,6.029,-0.032,0.01,-0.011,106.0,104.0,103.0,13.4,1505.2,329.0,-0.8,1.8,2470.757,13.29,0.033,287.4
2022-05-30T10:16:03,42.805,6.029,-0.026,0.019,0.002,107.0,103.0,101.0,13.3,1505.2,326.8,-0.8,1.8,2470.746,13.29,0.032,306.2
2022-05-30T10:19:03,42.805,6.029,-0.027,0.015,0.009,104.0,105.0,103.0,13.3,1505.2,332.3,-0.7,1.8,2470.715,13.29,0.03,299.1
2022-05-30T10:22:03,42.805,6.029,-0.028,0.021,-0.013,104.0,104.0,103.0,13.4,1505.2,331.9,-0.8,1.8,2470.735,13.29,0.035,306.9
2022-05-30T10:25:03,42.805,6.029,-0.006,0.003,-0.005,105.0,105.0,103.0,13.4,1505.2,331.9,-0.8,1.8,2470.754,13.29,0.006,296.6
2022-05-30T10:28:03,42.805,6.029,-0.03,-0.009,0.0,104.0,104.0,101.0,13.4,1505.2,326.7,-0.8,1.8,2470.732,13.29,0.031,253.3
2022-05-30T10:31:03,42.805,6.029,-0.027,0.014,-0.017,105.0,107.0,103.0,13.4,1505.2,325.9,-0.7,1.8,2470.708,13.29,0.03,297.4
2022-05-30T10:34:03,42.805,6.029,-0.038,0.005,0.021,105.0,105.0,102.0,13.4,1505.2,326.7,-0.8,1.8,2470.746,13.29,0.038,277.5
2022-05-30T10:37:03,42.805,6.029,-0.038,0.0,-0.025,103.0,106.0,103.0,13.3,1505.2,323.7,-0.8,1.9,2470.713,13.29,0.038,270.0
2022-05-30T10:40:03,42.805,6.029,-0.008,0.0,-0.005,104.0,105.0,102.0,13.4,1505.2,327.6,-0.7,1.8,2470.748,13.29,0.008,270.0
2022-05-30T10:43:03,42.805,6.029,-0.031,0.013,-0.009,105.0,104.0,103.0,13.3,1505.2,332.8,-0.7,1.9,2470.735,13.29,0.033,292.7
2022-05-30T10:46:03,42.805,6.029,-0.014,-0.015,-0.008,104.0,104.0,104.0,13.4,1505.2,322.1,-0.8,1.8,2470.737,13.29,0.02,223.0
2022-05-30T10:49:03,42.805,6.029,-0.028,-0.007,-0.014,105.0,104.0,104.0,13.3,1505.2,321.0,-0.7,1.8,2470.724,13.29,0.028,256.0
2022-05-30T10:52:03,42.805,6.029,-0.034,0.008,-0.002,104.0,104.0,102.0,13.3,1505.2,324.4,-0.7,1.8,2470.696,13.29,0.034,283.2
2022-05-30T10:55:03,42.805,6.029,-0.02,0.003,-0.009,104.0,103.0,103.0,13.3,1505.2,332.4,-0.7,1.8,2470.74,13.29,0.02,278.5
2022-05-30T10:58:03,42.805,6.029,-0.037,0.013,0.006,105.0,106.0,103.0,13.4,1505.2,332.7,-0.7,1.9,2470.729,13.29,0.039,289.4
2022-05-30T11:04:03,42.805,6.029,-0.017,0.008,-0.003,106.0,105.0,102.0,13.4,1505.2,323.2,-0.8,1.8,2470.75,13.28,0.018,295.2
2022-05-30T11:07:03,42.805,6.029,-0.047,0.005,0.012,104.0,105.0,102.0,13.3,1505.2,328.5,-0.8,1.8,2470.74,13.28,0.047,276.1
2022-05-30T11:10:03,42.805,6.029,-0.025,-0.017,0.002,105.0,104.0,101.0,13.4,1505.2,324.7,-0.7,1.8,2470.768,13.28,0.03,235.8
2022-05-30T11:13:03,42.805,6.029,-0.006,-0.001,-0.022,104.0,104.0,102.0,13.4,1505.2,329.9,-0.8,1.8,2470.766,13.29,0.006,260.5
2022-05-30T11:16:03,42.805,6.029,-0.035,-0.005,-0.021,107.0,104.0,102.0,13.3,1505.2,323.7,-0.7,1.8,2470.725,13.29,0.035,261.9
2022-05-30T11:19:03,42.805,6.029,-0.01,-0.017,-0.007,105.0,106.0,105.0,13.3,1505.2,324.7,-0.7,1.8,2470.733,13.29,0.019,210.5
2022-05-30T11:22:03,42.805,6.029,-0.012,-0.003,-0.013,104.0,105.0,108.0,13.4,1505.2,326.3,-0.7,1.8,2470.72,13.29,0.012,256.0
2022-05-30T11:25:03,42.805,6.029,-0.01,0.009,-0.022,105.0,104.0,103.0,13.4,1505.2,323.8,-0.8,1.8,2470.74,13.29,0.013,312.0
2022-05-30T11:28:03,42.805,6.029,-0.036,0.02,-0.017,106.0,104.0,103.0,13.4,1505.2,333.4,-0.8,1.8,2470.671,13.29,0.041,299.1
2022-05-30T11:31:03,42.805,6.029,-0.039,0.016,-0.017,106.0,105.0,103.0,13.4,1505.2,328.2,-0.8,1.8,2470.704,13.29,0.042,292.3
2022-05-30T11:34:03,42.805,6.029,-0.03,-0.021,-0.003,105.0,105.0,102.0,13.3,1505.2,322.0,-0.8,1.8,2470.724,13.29,0.036,235.0
2022-05-30T11:37:03,42.805,6.029,-0.02,0.005,-0.011,107.0,105.0,102.0,13.3,1505.2,333.6,-0.8,1.8,2470.713,13.29,0.02,284.0
2022-05-30T11:40:03,42.805,6.029,-0.046,-0.004,0.006,108.0,105.0,103.0,13.4,1505.2,324.4,-0.8,1.8,2470.701,13.29,0.046,265.0
2022-05-30T11:43:03,42.805,6.029,-0.029,-0.001,0.0,106.0,106.0,102.0,13.4,1505.2,325.4,-0.8,1.8,2470.725,13.29,0.029,268.0
2022-05-30T11:46:03,42.805,6.029,-0.031,0.005,0.007,107.0,105.0,102.0,13.4,1505.2,330.7,-0.8,1.8,2470.719,13.29,0.031,279.2
2022-05-30T11:49:03,42.805,6.029,-0.006,-0.004,-0.038,104.0,105.0,103.0,13.4,1505.2,332.0,-0.8,1.8,2470.743,13.29,0.007,236.3
2022-05-30T11:52:03,42.805,6.029,-0.037,0.007,0.001,106.0,106.0,104.0,13.4,1505.2,324.8,-0.7,1.8,2470.699,13.29,0.037,280.7
2022-05-30T11:55:03,42.805,6.029,-0.045,0.017,-0.011,105.0,107.0,102.0,13.4,1505.2,329.1,-0.8,1.8,2470.77,13.29,0.048,290.7
2022-05-30T11:58:03,42.805,6.029,-0.02,0.002,0.021,105.0,106.0,102.0,13.4,1505.2,329.7,-0.7,1.8,2470.701,13.29,0.02,275.7
2022-05-30T12:04:03,42.805,6.029,-0.03,0.022,0.003,106.0,107.0,103.0,13.4,1505.2,326.4,-0.8,1.8,2470.777,13.28,0.037,306.3
2022-05-30T12:07:03,42.805,6.029,-0.042,0.007,-0.032,106.0,106.0,104.0,13.4,1505.2,328.9,-0.8,1.8,2470.75,13.28,0.042,279.5
2022-05-30T12:10:03,42.805,6.029,-0.036,0.006,0.01,106.0,106.0,104.0,13.4,1505.2,331.6,-0.7,1.8,2470.756,13.28,0.036,279.5
2022-05-30T12:13:03,42.805,6.029,-0.023,0.003,-0.013,105.0,104.0,104.0,13.3,1505.2,326.5,-0.8,1.8,2470.758,13.29,0.023,277.4
2022-05-30T12:16:03,42.805,6.029,-0.029,0.027,0.009,105.0,105.0,104.0,13.4,1505.2,330.4,-0.7,1.8,2470.781,13.29,0.039,313.0
2022-05-30T12:19:03,42.805,6.029,-0.024,-0.001,0.006,106.0,105.0,103.0,13.3,1505.2,332.3,-0.7,1.8,2470.711,13.29,0.024,267.6
2022-05-30T12:22:03,42.805,6.029,-0.029,0.036,0.008,105.0,104.0,105.0,13.3,1505.2,322.9,-0.7,1.8,2470.711,13.29,0.046,321.1
2022-05-30T12:25:03,42.805,6.029,-0.034,0.016,-0.015,104.0,106.0,103.0,13.4,1505.2,324.1,-0.7,1.8,2470.683,13.29,0.037,295.2
2022-05-30T12:28:03,42.805,6.029,-0.033,0.01,-0.029,106.0,106.0,103.0,13.4,1505.2,328.9,-0.8,1.8,2470.707,13.29,0.034,286.9
2022-05-30T12:31:03,42.805,6.029,-0.029,0.013,0.005,106.0,106.0,103.0,13.4,1505.2,326.0,-0.8,1.8,2470.672,13.29,0.031,294.1
2022-05-30T12:34:03,42.805,6.029,-0.036,-0.003,-0.008,106.0,106.0,103.0,13.4,1505.2,323.4,-0.7,1.8,2470.721,13.29,0.036,265.2
2022-05-30T12:37:03,42.805,6.029,-0.021,-0.003,-0.017,108.0,110.0,102.0,13.4,1505.2,327.0,-0.8,1.8,2470.702,13.29,0.021,261.9
2022-05-30T12:40:03,42.805,6.029,-0.024,0.018,-0.022,105.0,108.0,104.0,13.3,1505.2,327.1,-0.8,1.8,2470.687,13.29,0.03,306.9
2022-05-30T12:43:03,42.805,6.029,-0.022,0.015,0.007,106.0,106.0,104.0,13.4,1505.2,321.8,-0.7,1.8,2470.717,13.29,0.026,304.3
2022-05-30T12:46:03,42.805,6.029,-0.039,0.006,-0.04,105.0,106.0,104.0,13.3,1505.2,331.9,-0.8,1.8,2470.702,13.29,0.039,278.7
2022-05-30T12:49:03,42.805,6.029,-0.034,0.012,-0.02,106.0,105.0,103.0,13.4,1505.2,326.1,-0.7,1.8,2470.725,13.29,0.036,289.4
2022-05-30T12:52:03,42.805,6.029,-0.033,0.01,-0.002,107.0,104.0,103.0,13.3,1505.2,328.1,-0.7,1.8,2470.652,13.29,0.034,286.9
2022-05-30T12:55:03,42.805,6.029,-0.01,0.014,-0.01,105.0,105.0,104.0,13.4,1505.2,329.0,-0.8,1.8,2470.685,13.29,0.017,324.5
2022-05-30T12:58:03,42.805,6.029,-0.044,-0.017,-0.016,105.0,105.0,102.0,13.3,1505.2,328.1,-0.7,1.8,2470.725,13.29,0.047,248.9
2022-05-30T13:04:03,42.805,6.029,-0.019,0.025,0.001,107.0,106.0,101.0,13.4,1505.2,331.4,-0.7,1.8,2470.752,13.28,0.031,322.8
2022-05-30T13:07:03,42.805,6.029,-0.049,0.006,0.001,105.0,105.0,103.0,13.4,1505.2,323.7,-0.8,1.8,2470.779,13.28,0.049,277.0
2022-05-30T13:10:03,42.805,6.029,-0.025,0.003,-0.011,105.0,105.0,101.0,13.4,1505.2,320.8,-0.8,1.8,2470.732,13.28,0.025,276.8
2022-05-30T13:13:03,42.805,6.029,-0.026,-0.001,-0.026,106.0,105.0,102.0,13.4,1505.2,325.3,-0.7,1.8,2470.754,13.28,0.026,267.8
2022-05-30T13:16:03,42.805,6.029,-0.025,0.008,0.0,103.0,104.0,104.0,13.4,1505.2,329.1,-0.7,1.8,2470.735,13.29,0.026,287.7
2022-05-30T13:19:03,42.805,6.029,-0.027,0.008,-0.016,104.0,106.0,103.0,13.3,1505.2,329.9,-0.8,1.8,2470.691,13.29,0.028,286.5
2022-05-30T13:22:03,42.805,6.029,-0.034,0.004,-0.004,105.0,104.0,102.0,13.3,1505.2,323.4,-0.7,1.8,2470.707,13.29,0.034,276.7
2022-05-30T13:25:03,42.805,6.029,-0.018,0.013,0.004,103.0,104.0,102.0,13.4,1505.2,330.1,-0.8,1.8,2470.671,13.29,0.022,305.8
2022-05-30T13:28:03,42.805,6.029,-0.04,0.038,-0.001,105.0,104.0,102.0,13.3,1505.2,328.2,-0.7,1.8,2470.705,13.29,0.055,313.5
2022-05-30T13:31:03,42.805,6.029,-0.038,0.003,0.002,104.0,104.0,102.0,13.3,1505.2,331.7,-0.7,1.8,2470.699,13.29,0.038,274.5
2022-05-30T13:34:03,42.805,6.029,-0.052,0.017,-0.018,105.0,103.0,103.0,13.4,1505.2,331.9,-0.7,1.8,2470.712,13.29,0.054,288.1
2022-05-30T13:37:03,42.805,6.029,-0.021,0.018,0.02,103.0,104.0,101.0,13.4,1505.2,333.0,-0.7,1.8,2470.688,13.29,0.027,310.6
2022-05-30T13:40:03,42.805,6.029,-0.01,0.018,0.006,107.0,104.0,102.0,13.4,1505.2,327.8,-0.7,1.8,2470.712,13.29,0.02,330.9
2022-05-30T13:43:03,42.805,6.029,-0.04,0.016,-0.014,105.0,106.0,102.0,13.4,1505.2,321.6,-0.7,1.8,2470.717,13.29,0.043,291.8
2022-05-30T13:46:03,42.805,6.029,-0.019,0.005,-0.002,106.0,105.0,103.0,13.4,1505.2,331.8,-0.7,1.8,2470.743,13.29,0.019,284.7
2022-05-30T13:49:03,42.805,6.029,-0.025,0.015,0.0,103.0,103.0,103.0,13.4,1505.2,326.3,-0.8,1.8,2470.697,13.29,0.029,301.0
2022-05-30T13:52:03,42.805,6.029,-0.006,0.011,-0.015,103.0,104.0,103.0,13.3,1505.2,326.1,-0.7,1.9,2470.708,13.29,0.012,331.4
2022-05-30T13:55:03,42.805,6.029,-0.032,0.009,0.011,102.0,104.0,102.0,13.4,1505.2,327.3,-0.7,1.8,2470.69,13.29,0.033,285.7
2022-05-30T13:58:03,42.805,6.029,-0.014,0.02,-0.028,106.0,104.0,102.0,13.4,1505.2,330.5,-0.7,1.8,2470.708,13.29,0.024,325.0
2022-05-30T14:04:03,42.805,6.029,-0.043,0.004,0.0,104.0,104.0,101.0,13.4,1505.2,328.8,-0.8,1.8,2470.746,13.28,0.043,275.3
2022-05-30T14:07:03,42.805,6.029,-0.033,-0.002,0.015,103.0,104.0,101.0,13.3,1505.2,324.9,-0.8,1.8,2470.762,13.28,0.033,266.5
2022-05-30T14:10:03,42.805,6.029,-0.024,-0.011,-0.018,104.0,104.0,102.0,13.4,1505.2,327.4,-0.8,1.8,2470.787,13.28,0.026,245.4
2022-05-30T14:13:03,42.805,6.029,-0.04,0.01,-0.022,103.0,104.0,102.0,13.4,1505.2,320.1,-0.8,1.8,2470.724,13.29,0.041,284.0
2022-05-30T14:16:03,42.805,6.029,-0.021,0.006,-0.013,104.0,104.0,102.0,13.4,1505.2,333.0,-0.7,1.8,2470.742,13.29,0.021,285.9
2022-05-30T14:19:03,42.805,6.029,-0.031,-0.005,-0.011,103.0,104.0,103.0,13.4,1505.2,326.9,-0.8,1.8,2470.743,13.29,0.031,260.8
2022-05-30T14:22:03,42.805,6.029,-0.046,0.021,0.009,102.0,103.0,102.0,13.4,1505.2,323.1,-0.8,1.9,2470.727,13.29,0.05,294.5
2022-05-30T14:25:03,42.805,6.029,-0.015,-0.013,0.007,102.0,104.0,102.0,13.4,1505.2,325.7,-0.8,1.8,2470.746,13.29,0.019,229.1
2022-05-30T14:28:03,42.805,6.029,-0.03,0.011,0.033,103.0,105.0,101.0,13.4,1505.2,324.6,-0.8,1.8,2470.752,13.29,0.031,290.1
2022-05-30T14:31:03,42.805,6.029,-0.034,0.018,0.01,104.0,103.0,101.0,13.4,1505.2,324.9,-0.8,1.8,2470.706,13.29,0.038,297.9
2022-05-30T14:34:03,42.805,6.029,-0.034,-0.002,-0.009,103.0,103.0,105.0,13.4,1505.2,326.4,-0.7,1.8,2470.715,13.29,0.034,266.6
2022-05-30T14:37:03,42.805,6.029,-0.034,0.0,0.004,103.0,103.0,102.0,13.4,1505.2,332.6,-0.7,1.8,2470.719,13.29,0.034,270.0
2022-05-30T14:40:03,42.805,6.029,-0.047,0.017,-0.023,103.0,104.0,101.0,13.4,1505.2,327.0,-0.7,1.8,2470.707,13.29,0.049,289.9
2022-05-30T14:43:03,42.805,6.029,-0.03,0.027,0.014,103.0,103.0,101.0,13.4,1505.2,330.7,-0.8,1.8,2470.734,13.29,0.04,312.0
2022-05-30T14:46:03,42.805,6.029,-0.029,0.001,-0.018,104.0,104.0,101.0,13.4,1505.2,331.0,-0.8,1.8,2470.735,13.29,0.029,272.0
2022-05-30T14:49:03,42.805,6.029,-0.036,0.022,-0.013,104.0,104.0,101.0,13.4,1505.2,329.9,-0.7,1.8,2470.746,13.29,0.042,301.4
2022-05-30T14:52:03,42.805,6.029,-0.014,0.007,0.007,105.0,103.0,101.0,13.4,1505.2,326.1,-0.8,1.8,2470.74,13.29,0.015,296.6
2022-05-30T14:55:03,42.805,6.029,-0.033,-0.008,-0.006,104.0,103.0,101.0,13.4,1505.2,321.6,-0.8,1.8,2470.761,13.29,0.033,256.4
2022-05-30T14:58:03,42.805,6.029,-0.024,-0.004,-0.016,105.0,103.0,101.0,13.4,1505.2,327.3,-0.8,1.8,2470.733,13.29,0.024,260.5
2022-05-30T15:01:03,42.805,6.029,-0.034,0.005,-0.005,104.0,105.0,102.0,13.4,1505.2,326.9,-0.7,1.8,2470.774,13.29,0.034,278.4
2022-05-30T15:04:03,42.805,6.029,-0.035,0.008,-0.009,104.0,103.0,102.0,13.3,1505.2,324.5,-0.7,1.8,2470.763,13.29,0.035,282.9
2022-05-30T15:07:03,42.805,6.029,-0.03,0.005,-0.002,103.0,104.0,101.0,13.4,1505.2,331.1,-0.8,1.8,2470.714,13.29,0.03,279.5
2022-05-30T15:10:03,42.805,6.029,-0.029,0.006,-0.047,103.0,104.0,101.0,13.3,1505.2,331.8,-0.7,1.8,2470.736,13.29,0.029,281.7
2022-05-30T15:13:03,42.805,6.029,-0.011,-0.003,-0.011,102.0,104.0,102.0,13.3,1505.2,325.6,-0.7,1.8,2470.788,13.29,0.011,254.7
2022-05-30T15:16:03,42.805,6.029,-0.051,0.012,-0.019,103.0,104.0,101.0,13.4,1505.2,323.4,-0.8,1.8,2470.729,13.29,0.052,283.2
2022-05-30T15:19:03,42.805,6.029,-0.011,0.007,-0.023,103.0,103.0,102.0,13.3,1505.2,333.4,-0.8,1.8,2470.747,13.29,0.013,302.5
2022-05-30T15:22:03,42.805,6.029,-0.053,0.004,0.001,104.0,102.0,102.0,13.3,1505.2,325.1,-0.7,1.8,2470.736,13.29,0.053,274.3
2022-05-30T15:25:03,42.805,6.029,-0.023,-0.005,-0.023,104.0,103.0,102.0,13.3,1505.2,321.8,-0.7,1.9,2470.753,13.29,0.023,257.7
2022-05-30T15:28:03,42.805,6.029,-0.033,-0.014,-0.03,103.0,104.0,101.0,13.3,1505.2,328.0,-0.7,1.8,2470.741,13.29,0.035,247.0
2022-05-30T15:31:03,42.805,6.029,-0.001,0.011,0.007,104.0,105.0,102.0,13.4,1505.2,327.1,-0.7,1.8,2470.777,13.29,0.011,354.8
2022-05-30T15:34:03,42.805,6.029,-0.017,0.006,0.012,104.0,104.0,103.0,13.3,1505.2,330.7,-0.7,1.8,2470.752,13.29,0.018,289.4
2022-05-30T15:37:03,42.805,6.029,-0.027,0.013,0.02,104.0,103.0,102.0,13.4,1505.2,324.2,-0.8,1.8,2470.78,13.29,0.029,295.7
2022-05-30T15:40:03,42.805,6.029,-0.018,0.005,-0.017,104.0,103.0,103.0,13.4,1505.2,325.0,-0.7,1.8,2470.768,13.29,0.018,285.5
2022-05-30T15:43:03,42.805,6.029,-0.005,-0.003,-0.004,103.0,103.0,102.0,13.3,1505.2,321.6,-0.7,1.8,2470.778,13.29,0.005,239.0
2022-05-30T15:46:03,42.805,6.029,-0.033,0.013,0.006,104.0,105.0,102.0,13.4,1505.2,329.3,-0.8,1.8,2470.764,13.29,0.035,291.5
2022-05-30T15:49:03,42.805,6.029,-0.023,-0.001,-0.02,103.0,103.0,102.0,13.4,1505.2,330.1,-0.8,1.9,2470.802,13.29,0.023,267.5
2022-05-30T15:52:03,42.805,6.029,-0.019,0.015,0.008,105.0,103.0,102.0,13.4,1505.2,327.8,-0.8,1.8,2470.819,13.29,0.024,308.3
2022-05-30T15:55:03,42.805,6.029,-0.004,0.001,-0.003,104.0,103.0,102.0,13.4,1505.2,328.2,-0.8,1.8,2470.772,13.29,0.004,284.0
2022-05-30T15:58:03,42.805,6.029,-0.03,0.003,0.008,103.0,104.0,103.0,13.4,1505.2,328.9,-0.8,1.8,2470.829,13.29,0.03,275.7
2022-05-30T16:04:03,42.805,6.029,-0.017,0.001,-0.004,104.0,103.0,102.0,13.4,1505.2,321.9,-0.8,1.8,2470.862,13.28,0.017,273.4
2022-05-30T16:07:03,42.805,6.029,-0.014,-0.001,-0.022,103.0,103.0,101.0,13.3,1505.2,325.9,-0.8,1.8,2470.856,13.28,0.014,265.9
2022-05-30T16:10:03,42.805,6.029,-0.016,-0.002,0.012,104.0,104.0,102.0,13.4,1505.2,331.0,-0.8,1.8,2470.848,13.28,0.016,262.9
2022-05-30T16:13:03,42.805,6.029,-0.019,0.001,-0.035,104.0,104.0,103.0,13.3,1505.2,322.2,-0.8,1.8,2470.814,13.29,0.019,273.0
2022-05-30T16:16:03,42.805,6.029,-0.029,0.007,0.004,104.0,104.0,102.0,13.4,1505.2,328.0,-0.8,1.8,2470.849,13.29,0.029,283.6
2022-05-30T16:19:03,42.805,6.029,-0.026,0.015,0.025,103.0,104.0,102.0,13.4,1505.2,329.5,-0.8,1.8,2470.804,13.29,0.03,300.0
2022-05-30T16:22:03,42.805,6.029,-0.03,0.009,-0.009,103.0,104.0,104.0,13.3,1505.2,321.9,-0.8,1.9,2470.82,13.29,0.031,286.7
2022-05-30T16:25:03,42.805,6.029,-0.031,-0.01,-0.003,106.0,103.0,101.0,13.3,1505.2,323.0,-0.7,1.9,2470.809,13.29,0.032,252.1
2022-05-30T16:28:03,42.805,6.029,-0.017,-0.006,0.003,102.0,105.0,103.0,13.4,1505.2,332.1,-0.8,1.9,2470.811,13.29,0.018,250.6
2022-05-30T16:31:03,42.805,6.029,-0.038,0.005,-0.017,104.0,105.0,103.0,13.3,1505.2,322.9,-0.8,1.8,2470.799,13.29,0.038,277.5
2022-05-30T16:34:03,42.805,6.029,-0.029,0.024,0.002,105.0,103.0,102.0,13.3,1505.2,333.0,-0.8,1.9,2470.806,13.29,0.037,309.6
2022-05-30T16:37:03,42.805,6.029,-0.021,0.01,0.035,107.0,104.0,102.0,13.3,1505.2,328.5,-0.7,1.8,2470.846,13.29,0.023,295.5
2022-05-30T16:40:03,42.805,6.029,-0.028,0.016,0.028,105.0,105.0,102.0,13.4,1505.2,333.2,-0.7,1.8,2470.84,13.29,0.032,299.7
2022-05-30T16:43:03,42.805,6.029,-0.019,-0.002,-0.01,105.0,104.0,102.0,13.4,1505.2,321.3,-0.8,1.8,2470.862,13.29,0.019,264.0
2022-05-30T16:46:03,42.805,6.029,-0.039,0.005,-0.002,104.0,104.0,102.0,13.4,1505.2,322.5,-0.8,1.8,2470.819,13.29,0.039,277.3
2022-05-30T16:49:03,42.805,6.029,-0.037,0.021,0.011,105.0,104.0,102.0,13.4,1505.2,328.3,-0.7,1.8,2470.874,13.29,0.042,299.6
2022-05-30T16:52:03,42.805,6.029,-0.036,0.0,-0.008,104.0,104.0,102.0,13.4,1505.2,329.3,-0.7,1.8,2470.848,13.29,0.036,270.0
2022-05-30T16:55:03,42.805,6.029,-0.023,0.012,0.011,104.0,104.0,102.0,13.4,1505.2,333.0,-0.8,1.8,2470.861,13.29,0.025,297.6
2022-05-30T16:58:03,42.805,6.029,-0.027,0.0,-0.008,105.0,103.0,102.0,13.4,1505.2,323.4,-0.8,1.8,2470.845,13.29,0.026,270.0
2022-05-30T17:04:03,42.805,6.029,-0.02,0.017,-0.025,104.0,103.0,103.0,13.4,1505.2,323.4,-0.8,1.8,2470.908,13.28,0.026,310.4
2022-05-30T17:07:03,42.805,6.029,-0.005,0.005,0.006,104.0,103.0,102.0,13.4,1505.2,328.8,-0.8,1.8,2470.933,13.28,0.007,315.0
2022-05-30T17:10:03,42.805,6.029,-0.016,0.008,-0.013,103.0,102.0,102.0,13.4,1505.2,321.5,-0.8,1.8,2470.901,13.29,0.017,296.6
2022-05-30T17:13:03,42.805,6.029,-0.042,-0.004,-0.033,103.0,103.0,102.0,13.4,1505.2,326.6,-0.7,1.8,2470.85,13.29,0.042,264.6
2022-05-30T17:16:03,42.805,6.029,-0.032,-0.005,-0.001,103.0,103.0,102.0,13.3,1505.2,321.7,-0.8,1.8,2470.965,13.29,0.032,261.1
2022-05-30T17:19:03,42.805,6.029,-0.03,0.01,-0.036,104.0,103.0,103.0,13.4,1505.2,330.0,-0.8,1.8,2470.913,13.29,0.031,288.4
2022-05-30T17:22:03,42.805,6.029,-0.008,-0.023,-0.032,104.0,102.0,102.0,13.3,1505.2,325.0,-0.8,1.8,2470.869,13.29,0.024,199.2
2022-05-30T17:25:03,42.805,6.029,-0.023,0.006,-0.007,102.0,104.0,101.0,13.4,1505.2,323.7,-0.7,1.8,2470.884,13.29,0.023,284.6
2022-05-30T17:28:03,42.805,6.029,-0.019,-0.005,-0.007,103.0,104.0,101.0,13.3,1505.2,328.4,-0.8,1.8,2470.878,13.29,0.019,255.3
2022-05-30T17:31:03,42.805,6.029,-0.027,0.019,0.024,103.0,103.0,101.0,13.4,1505.2,333.6,-0.8,1.8,2470.878,13.29,0.033,305.1
2022-05-30T17:34:03,42.805,6.029,-0.021,0.012,-0.007,102.0,105.0,102.0,13.3,1505.2,327.6,-0.8,1.8,2470.888,13.29,0.024,299.7
2022-05-30T17:37:03,42.805,6.029,-0.01,0.004,-0.006,104.0,103.0,102.0,13.4,1505.2,330.8,-0.7,1.8,2470.869,13.29,0.01,291.8
2022-05-30T17:40:03,42.805,6.029,-0.044,0.015,-0.036,104.0,104.0,102.0,13.4,1505.2,322.2,-0.7,1.9,2470.888,13.29,0.046,288.8
2022-05-30T17:43:03,42.805,6.029,-0.038,0.01,0.019,103.0,103.0,103.0,13.4,1505.2,331.0,-0.8,1.8,2470.921,13.29,0.039,284.7
2022-05-30T17:46:03,42.805,6.029,-0.03,0.017,0.005,103.0,103.0,101.0,13.3,1505.2,328.0,-0.8,1.8,2470.941,13.29,0.034,299.5
2022-05-30T17:49:03,42.805,6.029,-0.023,0.024,0.019,103.0,103.0,102.0,13.3,1505.2,333.4,-0.7,1.8,2470.927,13.29,0.033,316.2
2022-05-30T17:52:03,42.805,6.029,-0.038,0.013,-0.038,104.0,103.0,101.0,13.4,1505.2,329.1,-0.8,1.8,2470.919,13.29,0.04,288.9
2022-05-30T17:55:03,42.805,6.029,-0.021,0.01,-0.027,105.0,104.0,101.0,13.4,1505.2,333.2,-0.8,1.8,2470.936,13.29,0.023,295.5
2022-05-30T17:58:03,42.805,6.029,-0.024,0.011,0.007,102.0,103.0,103.0,13.4,1505.2,321.6,-0.7,1.8,2470.921,13.29,0.026,294.6
2022-05-30T18:04:03,42.805,6.029,-0.031,-0.003,0.004,104.0,102.0,103.0,13.4,1505.2,322.5,-0.8,1.8,2470.963,13.28,0.031,264.5
2022-05-30T18:07:03,42.805,6.029,-0.017,0.007,0.01,102.0,104.0,102.0,13.4,1505.2,321.0,-0.8,1.8,2470.993,13.28,0.018,292.4
2022-05-30T18:10:03,42.805,6.029,-0.028,0.006,-0.013,103.0,103.0,101.0,13.4,1505.2,328.8,-0.8,1.8,2470.99,13.28,0.028,282.1
2022-05-30T18:13:03,42.805,6.029,-0.035,0.014,0.009,104.0,101.0,102.0,13.4,1505.2,323.6,-0.8,1.9,2470.966,13.29,0.037,291.8
2022-05-30T18:16:03,42.805,6.029,-0.015,0.012,-0.008,102.0,104.0,102.0,13.4,1505.2,327.7,-0.8,1.8,2470.942,13.29,0.019,308.7
2022-05-30T18:19:03,42.805,6.029,-0.03,0.009,0.002,103.0,103.0,102.0,13.4,1505.2,321.6,-0.8,1.8,2470.974,13.29,0.031,286.7
2022-05-30T18:22:03,42.805,6.029,-0.005,0.018,0.011,104.0,104.0,102.0,13.4,1505.2,330.5,-0.8,1.8,2470.951,13.29,0.018,344.5
2022-05-30T18:25:03,42.805,6.029,-0.023,-0.013,0.0,104.0,103.0,101.0,13.4,1505.2,325.7,-0.8,1.8,2470.92,13.29,0.026,240.5
2022-05-30T18:28:03,42.805,6.029,-0.036,0.012,-0.008,106.0,105.0,100.0,13.4,1505.2,328.4,-0.8,1.8,2470.916,13.29,0.037,288.4
2022-05-30T18:31:03,42.805,6.029,-0.042,-0.006,-0.017,105.0,103.0,100.0,13.3,1505.2,323.8,-0.7,1.8,2470.969,13.29,0.042,261.9
2022-05-30T18:34:03,42.805,6.029,-0.017,-0.008,-0.018,103.0,103.0,103.0,13.4,1505.2,324.5,-0.8,1.8,2470.952,13.29,0.018,244.8
2022-05-30T18:37:03,42.805,6.029,-0.041,0.01,0.002,104.0,103.0,102.0,13.4,1505.2,326.0,-0.8,1.8,2470.962,13.29,0.042,283.7
2022-05-30T18:40:03,42.805,6.029,-0.032,0.003,-0.004,102.0,103.0,102.0,13.4,1505.2,328.3,-0.7,1.8,2470.938,13.29,0.032,275.4
2022-05-30T18:43:03,42.805,6.029,-0.016,0.01,0.008,103.0,103.0,101.0,13.3,1505.2,324.8,-0.8,1.8,2470.966,13.29,0.018,302.0
2022-05-30T18:46:03,42.805,6.029,-0.017,0.013,-0.006,103.0,103.0,101.0,13.4,1505.2,323.2,-0.8,1.9,2470.955,13.29,0.021,307.4